FW5449 Weather Reports


Display with metric or nautical units.
time (UTC)temp
F
wind
direction
speed
MPH
gust
MPH
rain 1hr
in
rain 24hr
in
rain mn
in
humidity
%
barometer
mb
20260503023706 65 333 4.0 9.0 0.00 0.00 0.00 73 1011.0
20260503023206 65 352 4.0 9.0 0.00 0.00 0.00 73 1011.0
20260503022709 65 15 4.0 9.0 0.00 0.00 0.00 74 1011.1
20260503022204 66 358 4.0 9.0 0.00 0.00 0.00 73 1011.1
20260503021704 66 3 4.0 9.0 0.00 0.00 0.00 72 1011.2
20260503021204 66 354 5.0 9.0 0.00 0.00 0.00 73 1011.1
20260503020925 66 327 5.0 10.0 0.00 0.00 0.00 72 1011.2
20260503020202 66 21 5.0 10.0 0.00 0.00 0.00 71 1011.2
20260503015703 67 328 4.0 8.0 0.00 0.00 0.00 71 1011.1
20260503015421 67 346 4.0 8.0 0.00 0.00 0.00 71 1011.2
20260503014704 67 352 4.0 9.0 0.00 0.00 0.00 72 1011.2
20260503014159 67 350 4.0 9.0 0.00 0.00 0.00 71 1011.3
20260503013657 67 338 3.0 7.0 0.00 0.00 0.00 71 1011.3
20260503013156 66 305 4.0 8.0 0.00 0.00 0.00 70 1011.2
20260503012658 67 286 4.0 8.0 0.00 0.00 0.00 71 1011.2
20260503012201 67 275 4.0 9.0 0.00 0.00 0.00 70 1011.3
20260503011657 67 309 4.0 9.0 0.00 0.00 0.00 71 1011.7
20260503011154 67 31 3.0 8.0 0.00 0.00 0.00 69 1011.7
20260503010921 67 11 4.0 9.0 0.00 0.00 0.00 69 1011.6
20260503010155 67 46 5.0 11.0 0.00 0.00 0.00 70 1011.8
20260503005652 67 28 5.0 11.0 0.00 0.00 0.00 70 1011.7
20260503005152 67 31 5.0 10.0 0.00 0.00 0.00 69 1011.4
20260503004652 67 344 5.0 10.0 0.00 0.00 0.00 69 1011.3
20260503004156 67 15 6.0 11.0 0.00 0.00 0.00 69 1011.2
20260503003652 67 356 6.0 12.0 0.00 0.00 0.00 67 1011.0
20260503003150 68 353 6.0 12.0 0.00 0.00 0.00 67 1010.9
20260503002652 68 40 6.0 11.0 0.00 0.00 0.00 67 1011.2
20260503002150 68 5 6.0 11.0 0.00 0.00 0.00 65 1011.3
20260503001651 68 8 6.0 11.0 0.00 0.00 0.00 68 1011.2
20260503001145 68 19 6.0 11.0 0.00 0.00 0.00 67 1011.2
20260503000648 68 19 6.0 12.0 0.00 0.00 0.00 67 1011.1
20260503000136 68 41 6.0 12.0 0.00 0.00 0.00 65 1011.0
20260502235630 69 50 5.0 9.0 0.00 0.00 0.00 66 1011.1
20260502235105 69 345 5.0 9.0 0.00 0.00 0.00 66 1011.1
20260502234556 69 314 5.0 10.0 0.00 0.00 0.00 66 1011.1
20260502234055 69 352 5.0 10.0 0.00 0.00 0.00 65 1011.2
20260502233815 69 325 5.0 10.0 0.00 0.00 0.00 67 1011.3
20260502233053 68 2 5.0 9.0 0.00 0.00 0.00 67 1011.4
20260502232554 68 337 5.0 9.0 0.00 0.00 0.00 67 1011.5
20260502232317 68 356 5.0 9.0 0.00 0.00 0.00 67 1011.5
20260502231815 69 2 5.0 10.0 0.00 0.00 0.00 67 1011.5
20260502231049 69 332 4.0 10.0 0.00 0.00 0.00 66 1011.7
20260502230549 69 336 4.0 9.0 0.00 0.00 0.00 65 1011.8
20260502230049 69 19 4.0 9.0 0.00 0.00 0.00 65 1011.9
20260502225548 68 0 4.0 9.0 0.00 0.00 0.00 67 1012.0
20260502225316 68 349 4.0 8.0 0.00 0.00 0.00 66 1012.0
20260502224550 67 312 3.0 9.0 0.00 0.00 0.00 67 1012.1
20260502224541 68 305 3.0 9.0 0.00 0.00 0.00 64 1012.2
20260502223539 67 328 3.0 8.0 0.00 0.00 0.00 68 1012.2
20260502223041 67 8 3.0 7.0 0.00 0.00 0.00 68 1012.3
20260502222534 66 293 5.0 10.0 0.00 0.00 0.00 68 1012.2
20260502222258 65 21 4.0 10.0 0.00 0.00 0.00 68 1012.4
20260502221535 65 6 3.0 8.0 0.00 0.00 0.00 68 1012.4
20260502221306 65 64 3.0 11.0 0.00 0.00 0.00 69 1012.5
20260502220534 65 48 4.0 11.0 0.00 0.00 0.00 70 1012.6
20260502220030 66 357 5.0 9.0 0.00 0.00 0.00 70 1012.8
20260502215529 65 308 4.0 8.0 0.00 0.00 0.00 70 1012.9
20260502215030 64 324 3.0 7.0 0.00 0.00 0.00 71 1012.9
20260502214530 64 308 3.0 7.0 0.00 0.00 0.00 69 1013.0
20260502214030 64 288 4.0 10.0 0.00 0.00 0.00 69 1013.0
20260502213754 65 24 4.0 10.0 0.00 0.00 0.00 65 1013.1
20260502213028 65 345 3.0 7.0 0.00 0.00 0.00 72 1013.2
20260502212529 64 356 4.0 9.0 0.00 0.00 0.00 70 1013.3
20260502212030 63 306 3.0 9.0 0.00 0.00 0.00 71 1013.4
20260502211528 62 314 2.0 6.0 0.00 0.00 0.00 71 1013.6
20260502211023 63 36 3.0 8.0 0.00 0.00 0.00 73 1013.6
20260502210524 63 19 4.0 9.0 0.00 0.00 0.00 73 1013.6
20260502210244 62 11 3.0 9.0 0.00 0.00 0.00 72 1013.6
20260502205511 63 37 3.0 9.0 0.00 0.00 0.00 71 1013.6
20260502205243 63 287 3.0 7.0 0.00 0.00 0.00 72 1013.6
20260502204514 63 63 3.0 7.0 0.00 0.00 0.00 70 1013.9
20260502204239 62 310 4.0 8.0 0.00 0.00 0.00 73 1013.9
20260502203506 62 330 4.0 8.0 0.00 0.00 0.00 71 1013.9
20260502203006 62 341 5.0 10.0 0.00 0.00 0.00 75 1013.9
20260502202500 63 356 5.0 10.0 0.00 0.00 0.00 70 1013.9
20260502201959 62 323 4.0 11.0 0.00 0.00 0.00 73 1013.8
20260502201458 61 0 4.0 11.0 0.00 0.00 0.00 75 1014.0
20260502200957 61 27 3.0 8.0 0.00 0.00 0.00 72 1014.1
20260502200455 60 333 2.0 8.0 0.00 0.00 0.00 75 1014.2
20260502195959 60 0 3.0 8.0 0.00 0.00 0.00 76 1014.2
20260502195457 59 28 4.0 8.0 0.00 0.00 0.00 77 1014.3
20260502194953 59 352 3.0 8.0 0.00 0.00 0.00 76 1014.3
20260502194454 58 339 3.0 7.0 0.00 0.00 0.00 78 1014.3
20260502193956 58 5 3.0 7.0 0.00 0.00 0.00 78 1014.6
20260502193451 58 318 3.0 7.0 0.00 0.00 0.00 77 1014.6
20260502192952 58 4 3.0 6.0 0.00 0.00 0.00 77 1014.7
20260502192455 58 313 4.0 7.0 0.00 0.00 0.00 77 1014.5
20260502191952 58 49 3.0 7.0 0.00 0.00 0.00 78 1014.6
20260502191453 58 359 4.0 10.0 0.00 0.00 0.00 79 1014.6
20260502190951 58 28 4.0 10.0 0.00 0.00 0.00 78 1014.7
20260502190453 58 6 3.0 8.0 0.00 0.00 0.00 79 1014.7
20260502185946 58 33 4.0 11.0 0.00 0.00 0.00 78 1014.6
20260502185449 58 23 5.0 11.0 0.00 0.00 0.00 79 1014.7
20260502185154 57 29 4.0 9.0 0.00 0.00 0.00 78 1014.8
20260502185037 57 310 4.0 9.0 0.00 0.00 0.00 78 1014.7
20260502183943 57 341 4.0 8.0 0.00 0.00 0.00 79 1014.9
20260502183444 57 331 4.0 8.0 0.00 0.00 0.00 80 1014.9
20260502182944 57 15 4.0 8.0 0.00 0.00 0.00 80 1014.9
20260502182706 57 10 4.0 8.0 0.00 0.00 0.00 80 1014.9
20260502182200 56 352 3.0 9.0 0.00 0.00 0.00 80 1015.0
20260502181435 56 332 4.0 9.0 0.00 0.00 0.00 81 1015.0
20260502180935 56 332 4.0 9.0 0.00 0.00 0.00 81 1015.1
20260502180658 55 2 4.0 9.0 0.00 0.00 0.00 82 1015.0
20260502170404 54 294 3.0 7.0 0.00 0.00 0.00 83 1015.3
20260502163858 54 316 5.0 8.0 0.00 0.00 0.00 84 1015.4
20260502163359 54 251 4.0 8.0 0.00 0.00 0.00 85 1015.5
20260502162857 54 297 4.0 8.0 0.00 0.00 0.00 86 1015.3
20260502162620 53 295 3.0 8.0 0.00 0.00 0.00 85 1015.3
20260502161855 54 283 3.0 6.0 0.00 0.00 0.00 85 1015.4
20260502161354 53 293 4.0 7.0 0.00 0.00 0.00 85 1015.2
20260502161337 54 326 3.0 7.0 0.00 0.00 0.00 84 1015.2
20260502160356 54 352 3.0 6.0 0.00 0.00 0.00 84 1015.2
20260502151840 53 43 3.0 7.0 0.00 0.00 0.00 83 1015.3
20260502151336 53 48 4.0 7.0 0.00 0.00 0.00 84 1015.3
20260502150838 53 18 4.0 7.0 0.00 0.00 0.00 85 1015.3
20260502150337 52 57 3.0 7.0 0.00 0.00 0.00 85 1015.3
20260502130718 49 173 0.0 2.0 0.00 0.00 0.00 88 1015.0
20260502130219 49 161 0.0 0.0 0.00 0.00 0.00 88 1014.7
20260502123120 50 216 0.0 1.0 0.00 0.00 0.00 86 1015.1
20260502122558 50 216 1.0 2.0 0.00 0.00 0.00 87 1015.1
20260502122055 50 216 1.0 2.0 0.00 0.00 0.00 87 1015.1
20260502121540 50 216 1.0 2.0 0.00 0.00 0.00 86 1015.1
20260502121040 50 216 1.0 2.0 0.00 0.00 0.00 87 1015.2
20260502120544 50 216 1.0 3.0 0.00 0.00 0.00 87 1015.1
20260502115525 49 216 3.0 8.0 0.00 0.00 0.00 87 1015.3
20260502115025 49 237 4.0 8.0 0.00 0.00 0.00 87 1015.4
20260502115000 49 221 3.0 7.0 0.00 0.00 0.00 88 1015.4
20260502114459 49 212 3.0 7.0 0.00 0.00 0.00 88 1015.4
20260502113517 49 214 3.0 6.0 0.00 0.00 0.00 89 1015.5
20260502113013 50 201 3.0 5.0 0.00 0.00 0.00 89 1015.4
20260502112513 50 200 2.0 5.0 0.00 0.00 0.00 88 1015.5
20260502112007 50 222 2.0 3.0 0.00 0.00 0.00 85 1015.4
20260502111952 50 192 2.0 3.0 0.00 0.00 0.00 85 1015.5
20260502111003 50 219 2.0 3.0 0.00 0.00 0.00 85 1015.4
20260502110440 50 223 2.0 3.0 0.00 0.00 0.00 85 1015.5
20260502105942 50 188 2.0 4.0 0.00 0.00 0.00 85 1015.6
20260502105431 50 188 2.0 4.0 0.00 0.00 0.00 85 1015.5
20260502104933 50 197 1.0 3.0 0.00 0.00 0.00 86 1015.5
20260502104649 50 197 1.0 2.0 0.00 0.00 0.00 86 1015.5
20260502104157 50 197 2.0 4.0 0.00 0.00 0.00 86 1015.6
20260502103426 50 197 2.0 4.0 0.00 0.00 0.00 86 1015.6
20260502102928 50 185 1.0 3.0 0.00 0.00 0.00 85 1015.6
20260502102427 50 185 1.0 3.0 0.00 0.00 0.00 85 1015.5
20260502101922 50 185 2.0 3.0 0.00 0.00 0.00 85 1015.5
20260502101423 50 206 2.0 4.0 0.00 0.00 0.00 85 1015.5
20260502100911 50 216 1.0 4.0 0.00 0.00 0.00 85 1015.5
20260502100409 50 180 1.0 3.0 0.00 0.00 0.00 86 1015.6
20260502090840 49 231 2.0 6.0 0.00 0.00 0.00 86 1015.7
20260502090342 49 251 2.0 6.0 0.00 0.00 0.00 85 1015.8
20260502071307 51 259 3.0 7.0 0.00 0.00 0.00 82 1016.7
20260502070803 52 270 4.0 7.0 0.00 0.00 0.00 82 1016.7
20260502070303 52 240 4.0 7.0 0.00 0.00 0.00 81 1016.6
20260502065803 52 270 4.0 8.0 0.00 0.00 0.00 81 1016.7
20260502065306 52 226 4.0 8.0 0.00 0.00 0.00 81 1016.7
20260502064801 52 221 4.0 9.0 0.00 0.00 0.00 81 1016.8
20260502064303 52 239 4.0 9.0 0.00 0.00 0.00 81 1016.8
20260502063805 52 216 4.0 7.0 0.00 0.00 0.00 81 1016.8
20260502063302 52 227 3.0 7.0 0.00 0.00 0.00 81 1016.8
20260502063024 52 203 3.0 5.0 0.00 0.00 0.00 81 1016.8
20260502062258 53 219 3.0 4.0 0.00 0.00 0.00 81 1016.9
20260502061757 53 181 3.0 4.0 0.00 0.00 0.00 81 1016.9
20260502061255 53 239 3.0 6.0 0.00 0.00 0.00 80 1016.8
20260502060754 53 256 4.0 8.0 0.00 0.00 0.00 81 1016.8
20260502060256 53 238 4.0 8.0 0.00 0.00 0.00 81 1016.7
20260502055755 53 252 4.0 8.0 0.00 0.00 0.00 81 1016.7
20260502055254 53 225 5.0 10.0 0.00 0.00 0.00 80 1016.6
20260502054753 53 237 5.0 10.0 0.00 0.00 0.00 80 1016.6
20260502054253 53 265 4.0 8.0 0.00 0.00 0.00 80 1016.4
20260502053752 53 228 4.0 9.0 0.00 0.00 0.00 80 1016.4
20260502053511 53 237 4.0 9.0 0.00 0.00 0.00 80 1016.4
20260502053018 53 243 4.0 8.0 0.00 0.00 0.00 80 1016.5
20260502052250 53 254 5.0 8.0 0.00 0.00 0.00 79 1016.4
20260502051747 53 243 5.0 9.0 0.00 0.00 0.00 79 1016.4
20260502051248 54 228 5.0 10.0 0.00 0.00 0.00 78 1016.3
20260502050747 54 265 5.0 10.0 0.00 0.00 0.00 78 1016.4
20260502050507 54 227 5.0 10.0 0.00 0.00 0.00 78 1016.3
20260502050007 54 227 5.0 10.0 0.00 0.00 0.00 77 1016.4
20260502045239 54 256 6.0 10.0 0.00 0.00 0.00 77 1016.3
20260502044956 55 252 6.0 10.0 0.00 0.00 0.00 76 1016.2
20260502044239 55 241 6.0 11.0 0.00 0.00 0.00 76 1016.2
20260502043735 55 289 6.0 11.0 0.00 0.00 0.00 75 1016.1
20260502043237 55 287 6.0 11.0 0.00 0.00 0.00 75 1016.1
20260502042738 56 233 6.0 11.0 0.00 0.00 0.00 74 1016.0
20260502042233 56 239 7.0 12.0 0.00 0.00 0.00 73 1016.0
20260502041955 56 254 6.0 12.0 0.00 0.00 0.00 73 1016.0
20260502041453 56 239 5.0 9.0 0.00 0.00 0.00 73 1015.9
20260502040724 56 232 5.0 10.0 0.00 0.00 0.00 73 1015.8
20260502040224 57 226 6.0 10.0 0.00 0.00 0.00 73 1015.7
20260502035723 57 244 6.0 11.0 0.00 0.00 0.00 72 1015.7
20260502035218 57 231 6.0 11.0 0.00 0.00 0.00 71 1015.5
20260502034717 58 238 5.0 10.0 0.00 0.00 0.00 70 1015.4
20260502034218 58 249 5.0 10.0 0.00 0.00 0.00 70 1015.3
20260502033717 58 242 4.0 10.0 0.00 0.00 0.00 70 1015.3
20260502033439 59 234 4.0 10.0 0.00 0.00 0.00 69 1015.2
20260502032714 60 237 6.0 11.0 0.00 0.00 0.00 67 1015.2
20260502032214 60 241 6.0 11.0 0.00 0.00 0.00 66 1015.1
20260502031716 60 246 5.0 11.0 0.00 0.00 0.00 66 1015.1
20260502031212 60 232 5.0 9.0 0.00 0.00 0.00 68 1014.9
20260502030713 61 224 4.0 9.0 0.00 0.00 0.00 68 1015.0
20260502030708 62 232 4.0 8.0 0.00 0.00 0.00 67 1014.9
20260502025711 62 248 4.0 8.0 0.00 0.00 0.00 65 1014.9
20260502025211 63 260 4.0 8.0 0.00 0.00 0.00 64 1014.8
20260502024708 64 285 4.0 8.0 0.00 0.00 0.00 63 1014.7
20260502024208 64 248 4.0 9.0 0.00 0.00 0.00 63 1014.7